DHART4 KBTV-KBTV

Flight info

Callsign DHART4
Flight time 0h 29m
Altitude 3500
Route VFR
Aircraft EC35/L-SDE3FGHIRWY/LB1

Departure

Time 2026-05-05 20:55
Airport Patrick Leahy Burlington International Airport (KBTV)

Arrival

Time 2026-05-05 21:24
Airport Patrick Leahy Burlington International Airport (KBTV)
Time Latitude Longitude Altitude Speed Heading
2026-05-05 20:47 44.47814 -73.15708 323 ft 0 kts 221°
2026-05-05 20:54 44.47814 -73.15711 380 ft 0 kts 239°
2026-05-05 20:54 44.47831 -73.15724 477 ft 6 kts 332°
2026-05-05 20:55 44.47883 -73.15739 655 ft 25 kts 351°
2026-05-05 20:55 44.48227 -73.15886 755 ft 78 kts 338°
2026-05-05 20:55 44.48814 -73.16300 842 ft 111 kts 322°
2026-05-05 20:55 44.49431 -73.16947 1080 ft 114 kts 309°
2026-05-05 20:56 44.50116 -73.17609 1094 ft 129 kts 327°
2026-05-05 20:56 44.50985 -73.18137 1088 ft 140 kts 331°
2026-05-05 20:56 44.51909 -73.18693 1051 ft 149 kts 331°
2026-05-05 20:56 44.52830 -73.19251 1028 ft 143 kts 332°
2026-05-05 20:57 44.53749 -73.19805 1027 ft 144 kts 332°
2026-05-05 20:57 44.54656 -73.20352 1026 ft 142 kts 330°
2026-05-05 20:57 44.55559 -73.20880 1029 ft 139 kts 332°
2026-05-05 20:57 44.56459 -73.21391 1024 ft 139 kts 331°
2026-05-05 20:58 44.57346 -73.21887 1035 ft 136 kts 332°
2026-05-05 20:58 44.58220 -73.22428 1041 ft 137 kts 332°
2026-05-05 20:58 44.59096 -73.22925 1030 ft 135 kts 329°
2026-05-05 20:58 44.59979 -73.23383 1042 ft 138 kts 331°
2026-05-05 20:59 44.60879 -73.23879 1039 ft 139 kts 332°
2026-05-05 20:59 44.61767 -73.24386 1038 ft 140 kts 332°
2026-05-05 20:59 44.62681 -73.24778 989 ft 136 kts 340°
2026-05-05 20:59 44.63605 -73.25010 1008 ft 135 kts 343°
2026-05-05 21:00 44.64536 -73.25225 1019 ft 136 kts 344°
2026-05-05 21:00 44.65474 -73.25450 1024 ft 138 kts 342°
2026-05-05 21:00 44.66427 -73.25660 1026 ft 140 kts 343°
2026-05-05 21:00 44.67396 -73.25877 1019 ft 141 kts 346°
2026-05-05 21:01 44.68361 -73.26039 999 ft 139 kts 350°
2026-05-05 21:01 44.69291 -73.26291 1065 ft 137 kts 321°
2026-05-05 21:01 44.69800 -73.27373 1089 ft 136 kts 283°
2026-05-05 21:01 44.69972 -73.28692 1065 ft 138 kts 275°
2026-05-05 21:02 44.70101 -73.30020 1022 ft 135 kts 273°
2026-05-05 21:02 44.70206 -73.31306 985 ft 129 kts 270°
2026-05-05 21:02 44.70231 -73.32645 620 ft 143 kts 268°
2026-05-05 21:02 44.70212 -73.33926 653 ft 123 kts 265°
2026-05-05 21:03 44.70207 -73.35078 674 ft 113 kts 268°
2026-05-05 21:03 44.70587 -73.35947 629 ft 116 kts 334°
2026-05-05 21:03 44.71339 -73.35626 584 ft 124 kts 50°
2026-05-05 21:03 44.71387 -73.34511 657 ft 122 kts 126°
2026-05-05 21:04 44.70674 -73.34070 744 ft 117 kts 192°
2026-05-05 21:04 44.70178 -73.34851 705 ft 117 kts 264°
2026-05-05 21:04 44.70619 -73.35737 626 ft 122 kts 335°
2026-05-05 21:04 44.71387 -73.35438 600 ft 122 kts 48°
2026-05-05 21:05 44.71445 -73.34327 666 ft 121 kts 125°
2026-05-05 21:05 44.70742 -73.33898 750 ft 117 kts 196°
2026-05-05 21:05 44.70267 -73.34748 691 ft 121 kts 264°
2026-05-05 21:05 44.70713 -73.35690 573 ft 125 kts 331°
2026-05-05 21:06 44.71542 -73.35599 583 ft 118 kts 11°
2026-05-05 21:06 44.72051 -73.34795 614 ft 119 kts 84°
2026-05-05 21:06 44.71687 -73.33828 681 ft 119 kts 155°
2026-05-05 21:06 44.70918 -73.33960 722 ft 118 kts 223°
2026-05-05 21:07 44.70693 -73.35001 693 ft 112 kts 270°
2026-05-05 21:07 44.71023 -73.35922 641 ft 110 kts 320°
2026-05-05 21:07 44.71740 -73.36214 629 ft 109 kts
2026-05-05 21:07 44.72372 -73.35673 633 ft 110 kts 51°
2026-05-05 21:08 44.72441 -73.34660 701 ft 112 kts 123°
2026-05-05 21:08 44.71852 -73.34129 805 ft 103 kts 187°
2026-05-05 21:08 44.71180 -73.34595 732 ft 111 kts 227°
2026-05-05 21:08 44.71101 -73.35626 671 ft 118 kts 295°
2026-05-05 21:09 44.71718 -73.36324 629 ft 112 kts 330°
2026-05-05 21:09 44.72465 -73.36355 616 ft 111 kts 19°
2026-05-05 21:09 44.72848 -73.35473 655 ft 114 kts 96°
2026-05-05 21:09 44.72368 -73.34643 753 ft 117 kts 167°
2026-05-05 21:10 44.71581 -73.34636 759 ft 113 kts 198°
2026-05-05 21:10 44.70954 -73.35227 750 ft 111 kts 227°
2026-05-05 21:10 44.70757 -73.36206 695 ft 109 kts 280°
2026-05-05 21:10 44.71142 -73.37110 689 ft 108 kts 301°
2026-05-05 21:11 44.71630 -73.37925 702 ft 110 kts 303°
2026-05-05 21:11 44.72195 -73.38647 660 ft 114 kts 332°
2026-05-05 21:11 44.72931 -73.38329 621 ft 121 kts 51°
2026-05-05 21:11 44.72960 -73.37207 690 ft 120 kts 124°
2026-05-05 21:12 44.72531 -73.36202 682 ft 121 kts 118°
2026-05-05 21:12 44.72274 -73.35108 402 ft 109 kts 107°
2026-05-05 21:12 44.72195 -73.34436 364 ft 44 kts 103°
2026-05-05 21:12 44.72175 -73.34134 250 ft 24 kts 104°
2026-05-05 21:13 44.72165 -73.34013 180 ft 4 kts 120°
2026-05-05 21:13 44.72153 -73.33918 150 ft 13 kts 121°
2026-05-05 21:13 44.72158 -73.33900 127 ft 0 kts 172°
2026-05-05 21:16 44.72158 -73.33902 139 ft 2 kts 172°
2026-05-05 21:16 44.72119 -73.33929 304 ft 26 kts 193°
2026-05-05 21:16 44.71762 -73.34134 447 ft 82 kts 201°
2026-05-05 21:17 44.71079 -73.33917 525 ft 118 kts 160°
2026-05-05 21:17 44.70339 -73.33279 648 ft 130 kts 152°
2026-05-05 21:17 44.69579 -73.32516 738 ft 140 kts 149°
2026-05-05 21:17 44.68804 -73.31650 883 ft 143 kts 147°
2026-05-05 21:18 44.68041 -73.30768 1066 ft 144 kts 147°
2026-05-05 21:18 44.67232 -73.29914 1094 ft 143 kts 153°
2026-05-05 21:18 44.66411 -73.29274 1056 ft 132 kts 163°
2026-05-05 21:18 44.65585 -73.28801 1034 ft 125 kts 166°
2026-05-05 21:19 44.64783 -73.28380 1029 ft 122 kts 167°
2026-05-05 21:19 44.63988 -73.27964 1028 ft 122 kts 167°
2026-05-05 21:19 44.63186 -73.27546 1024 ft 122 kts 167°
2026-05-05 21:19 44.62394 -73.27123 1011 ft 123 kts 163°
2026-05-05 21:20 44.61617 -73.26636 1014 ft 121 kts 162°
2026-05-05 21:20 44.60853 -73.26132 1025 ft 121 kts 163°
2026-05-05 21:20 44.60085 -73.25691 1071 ft 118 kts 167°
2026-05-05 21:20 44.59302 -73.25332 1074 ft 119 kts 169°
2026-05-05 21:21 44.58506 -73.25008 1067 ft 119 kts 172°
2026-05-05 21:21 44.57715 -73.24669 1061 ft 118 kts 171°
2026-05-05 21:21 44.56934 -73.24339 1064 ft 118 kts 171°
2026-05-05 21:21 44.56144 -73.24054 1075 ft 117 kts 174°
2026-05-05 21:22 44.55356 -73.23813 1070 ft 114 kts 175°
2026-05-05 21:22 44.54598 -73.23560 1072 ft 111 kts 175°
2026-05-05 21:22 44.53854 -73.23304 1078 ft 109 kts 175°
2026-05-05 21:22 44.53106 -73.23051 1056 ft 113 kts 175°
2026-05-05 21:23 44.52280 -73.22821 951 ft 119 kts 175°
2026-05-05 21:23 44.51483 -73.22579 931 ft 117 kts 175°
2026-05-05 21:23 44.50741 -73.22188 891 ft 115 kts 153°
2026-05-05 21:23 44.50086 -73.21565 905 ft 115 kts 152°
2026-05-05 21:24 44.49432 -73.20880 839 ft 121 kts 149°
2026-05-05 21:24 44.48758 -73.20216 756 ft 114 kts 150°
2026-05-05 21:24 44.48180 -73.19661 774 ft 81 kts 151°
2026-05-05 21:24 44.47915 -73.19405 787 ft 16 kts 155°
2026-05-05 21:25 44.47881 -73.19364 626 ft 3 kts 21°
2026-05-05 21:25 44.47918 -73.19349 532 ft 2 kts 12°
2026-05-05 21:25 44.47928 -73.19342 520 ft 0 kts 11°
2026-05-05 21:26 44.47929 -73.19342 520 ft 0 kts
2026-05-05 21:37 44.47930 -73.19339 536 ft 2 kts
2026-05-05 21:37 44.47933 -73.19339 602 ft 2 kts 312°
2026-05-05 21:37 44.47916 -73.19400 748 ft 27 kts 219°
2026-05-05 21:37 44.47585 -73.19661 821 ft 84 kts 217°
2026-05-05 21:38 44.47016 -73.20232 808 ft 111 kts 221°
2026-05-05 21:38 44.46450 -73.20888 928 ft 99 kts 223°
2026-05-05 21:38 44.45926 -73.21516 986 ft 102 kts 226°
2026-05-05 21:38 44.45476 -73.22253 1024 ft 99 kts 238°
2026-05-05 21:39 44.45127 -73.23078 1031 ft 100 kts 242°
2026-05-05 21:39 44.44782 -73.23948 1028 ft 104 kts 238°
2026-05-05 21:39 44.44400 -73.24819 1020 ft 106 kts 237°
2026-05-05 21:39 44.43957 -73.25665 1014 ft 109 kts 234°
2026-05-05 21:40 44.43489 -73.26510 1010 ft 109 kts 233°
2026-05-05 21:40 44.43019 -73.27348 1010 ft 110 kts 234°
2026-05-05 21:40 44.42549 -73.28199 1006 ft 110 kts 233°
2026-05-05 21:40 44.42074 -73.29038 1007 ft 110 kts 233°
2026-05-05 21:41 44.41605 -73.29867 1020 ft 110 kts 232°
2026-05-05 21:41 44.41146 -73.30735 1010 ft 112 kts 233°
2026-05-05 21:41 44.40686 -73.31622 1003 ft 113 kts 233°
2026-05-05 21:41 44.40220 -73.32511 998 ft 114 kts 233°
2026-05-05 21:42 44.39738 -73.33398 989 ft 115 kts 231°
2026-05-05 21:42 44.39266 -73.34219 1132 ft 102 kts 231°
2026-05-05 21:42 44.38840 -73.34944 1286 ft 91 kts 230°
2026-05-05 21:42 44.38440 -73.35593 1422 ft 87 kts 231°
2026-05-05 21:43 44.38023 -73.36222 1496 ft 90 kts 230°
2026-05-05 21:43 44.37589 -73.36871 1530 ft 94 kts 230°
2026-05-05 21:43 44.37143 -73.37568 1538 ft 98 kts 230°
2026-05-05 21:43 44.36704 -73.38289 1535 ft 101 kts 230°
2026-05-05 21:44 44.36234 -73.39035 1531 ft 102 kts 231°
2026-05-05 21:44 44.35765 -73.39772 1536 ft 103 kts 229°
2026-05-05 21:44 44.35300 -73.40565 1521 ft 108 kts 230°
2026-05-05 21:44 44.34855 -73.41412 1505 ft 108 kts 241°
2026-05-05 21:45 44.34643 -73.42401 1498 ft 106 kts 261°
2026-05-05 21:45 44.34670 -73.43429 1496 ft 106 kts 274°
2026-05-05 21:45 44.34786 -73.44455 1495 ft 107 kts 284°
2026-05-05 21:45 44.35067 -73.45407 1493 ft 106 kts 296°
2026-05-05 21:46 44.35444 -73.46271 1497 ft 106 kts 299°
2026-05-05 21:46 44.35830 -73.47156 1502 ft 107 kts 300°
2026-05-05 21:46 44.36218 -73.48063 1502 ft 110 kts 298°
2026-05-05 21:46 44.36645 -73.48960 1491 ft 111 kts 307°
2026-05-05 21:47 44.37226 -73.49632 1484 ft 107 kts 324°
2026-05-05 21:47 44.37861 -73.50073 1601 ft 100 kts 324°
2026-05-05 21:47 44.38507 -73.50385 1733 ft 98 kts 328°
2026-05-05 21:47 44.39141 -73.50685 1849 ft 95 kts 334°
2026-05-05 21:48 44.39778 -73.50734 1956 ft 92 kts 344°
2026-05-05 21:48 44.40351 -73.50796 2204 ft 64 kts 317°
2026-05-05 21:48 44.40608 -73.51113 2495 ft 42 kts 277°
2026-05-05 21:48 44.40601 -73.51486 2725 ft 40 kts 252°
2026-05-05 21:49 44.40468 -73.51871 2919 ft 48 kts 248°
2026-05-05 21:49 44.40284 -73.52224 2998 ft 44 kts 212°
2026-05-05 21:49 44.40051 -73.52240 2916 ft 59 kts 180°
2026-05-05 21:49 44.39698 -73.51981 2907 ft 23 kts 152°
2026-05-05 21:50 44.39659 -73.51851 2776 ft 4 kts 155°
2026-05-05 21:50 44.39698 -73.51874 2643 ft 4 kts 172°
2026-05-05 21:50 44.39571 -73.51892 2462 ft 19 kts 181°
2026-05-05 21:50 44.39579 -73.51872 2264 ft 14 kts 195°
2026-05-05 21:51 44.39644 -73.51897 2113 ft 10 kts 228°
2026-05-05 21:51 44.39639 -73.51933 1887 ft 3 kts 232°
2026-05-05 21:51 44.39626 -73.51953 1673 ft 4 kts 236°
2026-05-05 21:51 44.39644 -73.51965 1504 ft 3 kts 237°
2026-05-05 21:52 44.39650 -73.51963 1436 ft 0 kts 239°
2026-05-05 21:58 44.39609 -73.51958 1635 ft 28 kts 198°
2026-05-05 21:58 44.39199 -73.51540 1482 ft 110 kts 122°
2026-05-05 21:58 44.39360 -73.50489 1561 ft 128 kts 32°
2026-05-05 21:59 44.40219 -73.50043 1614 ft 135 kts 10°
2026-05-05 21:59 44.41142 -73.49731 1722 ft 133 kts
2026-05-05 21:59 44.41998 -73.49347 1949 ft 126 kts 10°
2026-05-05 21:59 44.42812 -73.48973 2201 ft 120 kts
2026-05-05 22:00 44.43583 -73.48602 2421 ft 117 kts
2026-05-05 22:00 44.44360 -73.48253 2549 ft 122 kts
2026-05-05 22:00 44.45209 -73.47951 2569 ft 129 kts
2026-05-05 22:00 44.46112 -73.47672 2553 ft 136 kts
2026-05-05 22:01 44.47050 -73.47399 2532 ft 138 kts
2026-05-05 22:01 44.47995 -73.47116 2520 ft 140 kts
2026-05-05 22:01 44.48947 -73.46839 2512 ft 139 kts
2026-05-05 22:01 44.49896 -73.46569 2542 ft 141 kts
2026-05-05 22:02 44.50865 -73.46289 2540 ft 143 kts
2026-05-05 22:02 44.51833 -73.46006 2535 ft 144 kts
2026-05-05 22:02 44.52813 -73.45732 2533 ft 144 kts
2026-05-05 22:02 44.53796 -73.45453 2533 ft 144 kts
2026-05-05 22:03 44.54787 -73.45164 2534 ft 146 kts
2026-05-05 22:03 44.55792 -73.44959 2578 ft 147 kts 353°
2026-05-05 22:03 44.56813 -73.44995 2586 ft 146 kts 346°
2026-05-05 22:03 44.57811 -73.45074 2564 ft 142 kts 345°
2026-05-05 22:04 44.58780 -73.45161 2554 ft 141 kts 344°
2026-05-05 22:04 44.59753 -73.45249 2554 ft 140 kts 345°
2026-05-05 22:04 44.60725 -73.45361 2552 ft 140 kts 344°
2026-05-05 22:04 44.61692 -73.45473 2550 ft 139 kts 344°
2026-05-05 22:05 44.62656 -73.45571 2552 ft 139 kts 343°
2026-05-05 22:05 44.63620 -73.45665 2553 ft 139 kts 344°
2026-05-05 22:05 44.64578 -73.45761 2554 ft 138 kts 344°
2026-05-05 22:05 44.65540 -73.45860 2554 ft 138 kts 344°
2026-05-05 22:06 44.66497 -73.45965 2557 ft 138 kts 344°
2026-05-05 22:06 44.67437 -73.46061 2530 ft 135 kts 348°
2026-05-05 22:06 44.68360 -73.45940 2514 ft 132 kts 356°
2026-05-05 22:06 44.69267 -73.45744 2537 ft 133 kts 358°
2026-05-05 22:07 44.70187 -73.45529 2550 ft 135 kts 358°
2026-05-05 22:07 44.71120 -73.45314 2553 ft 136 kts 358°
2026-05-05 22:07 44.72058 -73.45095 2555 ft 138 kts 358°
2026-05-05 22:07 44.73014 -73.44873 2552 ft 141 kts 358°
2026-05-05 22:08 44.73990 -73.44647 2547 ft 142 kts 359°
2026-05-05 22:08 44.74962 -73.44430 2543 ft 139 kts 359°
2026-05-05 22:08 44.75902 -73.44217 2557 ft 138 kts 359°
2026-05-05 22:08 44.76847 -73.44003 2552 ft 137 kts 358°
2026-05-05 22:09 44.77802 -73.43790 2550 ft 140 kts 358°
2026-05-05 22:09 44.78769 -73.43579 2545 ft 141 kts 359°
2026-05-05 22:09 44.79740 -73.43373 2541 ft 141 kts 358°
2026-05-05 22:09 44.80710 -73.43167 2533 ft 141 kts 359°
2026-05-05 22:10 44.81639 -73.42803 2493 ft 137 kts 10°
2026-05-05 22:10 44.82537 -73.42323 2510 ft 140 kts 12°
2026-05-05 22:10 44.83445 -73.41811 2520 ft 142 kts 13°
2026-05-05 22:10 44.84351 -73.41302 2525 ft 142 kts 14°
2026-05-05 22:11 44.85270 -73.40802 2520 ft 141 kts 14°
2026-05-05 22:11 44.86193 -73.40308 2527 ft 143 kts 13°
2026-05-05 22:11 44.87120 -73.39788 2519 ft 144 kts 13°
2026-05-05 22:11 44.88056 -73.39263 2507 ft 145 kts 14°
2026-05-05 22:12 44.88958 -73.38652 2489 ft 143 kts 19°
2026-05-05 22:12 44.89835 -73.37995 2498 ft 143 kts 21°
2026-05-05 22:12 44.90695 -73.37329 2502 ft 143 kts 21°
2026-05-05 22:12 44.91514 -73.36571 2471 ft 142 kts 49°
2026-05-05 22:13 44.92051 -73.35426 2491 ft 139 kts 57°
2026-05-05 22:13 44.92531 -73.34246 2504 ft 139 kts 61°
2026-05-05 22:13 44.92985 -73.33020 2511 ft 143 kts 63°
2026-05-05 22:13 44.93384 -73.31726 2511 ft 145 kts 70°
2026-05-05 22:14 44.93711 -73.30359 2517 ft 148 kts 75°
2026-05-05 22:14 44.94033 -73.28959 2511 ft 152 kts 76°
2026-05-05 22:14 44.94353 -73.27559 2499 ft 151 kts 76°
2026-05-05 22:14 44.94620 -73.26133 2515 ft 150 kts 83°
2026-05-05 22:15 44.94806 -73.24687 2514 ft 150 kts 86°
2026-05-05 22:15 44.94963 -73.23238 2507 ft 149 kts 86°
2026-05-05 22:15 44.95111 -73.21792 2504 ft 149 kts 87°
2026-05-05 22:15 44.95252 -73.20330 2502 ft 151 kts 87°
2026-05-05 22:16 44.95289 -73.18871 2564 ft 147 kts 118°
2026-05-05 22:16 44.94626 -73.17813 2563 ft 146 kts 152°
2026-05-05 22:16 44.93800 -73.17011 2605 ft 143 kts 163°
2026-05-05 22:16 44.92905 -73.16406 2607 ft 142 kts 169°
2026-05-05 22:17 44.91971 -73.16064 2588 ft 138 kts 180°
2026-05-05 22:17 44.91036 -73.15868 2595 ft 134 kts 183°
2026-05-05 22:17 44.90115 -73.15757 2602 ft 131 kts 185°
2026-05-05 22:17 44.89212 -73.15664 2597 ft 129 kts 186°
2026-05-05 22:18 44.88318 -73.15571 2600 ft 130 kts 186°
2026-05-05 22:18 44.87417 -73.15486 2599 ft 130 kts 186°
2026-05-05 22:18 44.86511 -73.15405 2598 ft 131 kts 186°
2026-05-05 22:18 44.85598 -73.15321 2596 ft 132 kts 186°
2026-05-05 22:19 44.84700 -73.15282 2637 ft 123 kts 198°
2026-05-05 22:19 44.84094 -73.15975 2597 ft 119 kts 252°
2026-05-05 22:19 44.84311 -73.17028 2521 ft 116 kts 295°
2026-05-05 22:19 44.84938 -73.17731 2505 ft 117 kts 317°
2026-05-05 22:20 44.85697 -73.18144 2512 ft 118 kts 328°
2026-05-05 22:20 44.86502 -73.18449 2539 ft 122 kts 330°
2026-05-05 22:20 44.87345 -73.18757 2557 ft 128 kts 332°
2026-05-05 22:20 44.88273 -73.19139 1951 ft 139 kts 332°
2026-05-05 22:21 44.89120 -73.19584 1540 ft 120 kts 313°
2026-05-05 22:21 44.89712 -73.20256 1342 ft 101 kts 308°
2026-05-05 22:21 44.90195 -73.20833 1285 ft 95 kts 306°
2026-05-05 22:21 44.90755 -73.21386 1061 ft 99 kts 322°
2026-05-05 22:22 44.91382 -73.21721 944 ft 94 kts 332°
2026-05-05 22:22 44.92040 -73.21900 744 ft 102 kts 340°
2026-05-05 22:22 44.92761 -73.22137 512 ft 109 kts 342°
2026-05-05 22:22 44.93349 -73.22328 312 ft 36 kts 345°
2026-05-05 22:23 44.93420 -73.22335 140 ft 7 kts 342°
2026-05-05 22:23 44.93426 -73.22332 113 ft 0 kts 314°
2026-05-05 22:24 44.93427 -73.22333 122 ft 1 kts 314°
2026-05-05 22:24 44.93429 -73.22339 132 ft 1 kts 314°
2026-05-05 22:24 44.93437 -73.22354 189 ft 2 kts 219°
2026-05-05 22:25 44.93294 -73.22262 430 ft 51 kts 172°
2026-05-05 22:25 44.92781 -73.22212 653 ft 87 kts 181°
2026-05-05 22:25 44.92129 -73.22093 1000 ft 104 kts 184°
2026-05-05 22:25 44.91365 -73.22002 1345 ft 110 kts 185°
2026-05-05 22:26 44.90566 -73.21897 1604 ft 123 kts 185°
2026-05-05 22:26 44.89640 -73.21806 1562 ft 136 kts 185°
2026-05-05 22:26 44.88712 -73.21700 1543 ft 132 kts 183°
2026-05-05 22:26 44.87815 -73.21554 1570 ft 129 kts 182°
2026-05-05 22:27 44.86924 -73.21423 1586 ft 129 kts 183°
2026-05-05 22:27 44.86031 -73.21300 1592 ft 129 kts 182°
2026-05-05 22:27 44.85149 -73.21176 1592 ft 129 kts 184°
2026-05-05 22:27 44.84258 -73.21024 1594 ft 129 kts 183°
2026-05-05 22:28 44.83361 -73.20871 1600 ft 131 kts 183°
2026-05-05 22:28 44.82458 -73.20735 1606 ft 130 kts 182°
2026-05-05 22:28 44.81558 -73.20612 1605 ft 129 kts 182°
2026-05-05 22:28 44.80671 -73.20492 1609 ft 128 kts 183°
2026-05-05 22:29 44.79776 -73.20352 1606 ft 131 kts 183°
2026-05-05 22:29 44.78866 -73.20199 1602 ft 132 kts 183°
2026-05-05 22:29 44.77956 -73.20037 1602 ft 131 kts 183°
2026-05-05 22:29 44.77050 -73.19866 1608 ft 131 kts 182°
2026-05-05 22:30 44.76148 -73.19719 1606 ft 133 kts 183°
2026-05-05 22:30 44.75230 -73.19563 1601 ft 133 kts 182°
2026-05-05 22:30 44.74311 -73.19400 1599 ft 133 kts 183°
2026-05-05 22:30 44.73410 -73.19218 1602 ft 128 kts 183°
2026-05-05 22:31 44.72527 -73.19042 1617 ft 129 kts 183°
2026-05-05 22:31 44.71628 -73.18868 1606 ft 131 kts 182°
2026-05-05 22:31 44.70725 -73.18725 1607 ft 130 kts 182°
2026-05-05 22:31 44.69824 -73.18583 1612 ft 130 kts 183°
2026-05-05 22:32 44.68933 -73.18447 1609 ft 128 kts 183°
2026-05-05 22:32 44.68060 -73.18286 1611 ft 128 kts 183°
2026-05-05 22:32 44.67178 -73.18124 1616 ft 126 kts 184°
2026-05-05 22:32 44.66297 -73.17936 1622 ft 130 kts 182°
2026-05-05 22:33 44.65388 -73.17787 1623 ft 133 kts 182°
2026-05-05 22:33 44.64474 -73.17639 1616 ft 131 kts 183°
2026-05-05 22:33 44.63583 -73.17491 1620 ft 126 kts 184°
2026-05-05 22:33 44.62721 -73.17312 1629 ft 125 kts 182°
2026-05-05 22:34 44.61855 -73.17159 1633 ft 128 kts 183°
2026-05-05 22:34 44.60963 -73.17017 1637 ft 130 kts 182°
2026-05-05 22:34 44.60066 -73.16883 1636 ft 132 kts 183°
2026-05-05 22:34 44.59162 -73.16751 1626 ft 129 kts 182°
2026-05-05 22:35 44.58285 -73.16647 1635 ft 124 kts 184°
2026-05-05 22:35 44.57414 -73.16627 1644 ft 129 kts 190°
2026-05-05 22:35 44.56531 -73.16777 1659 ft 127 kts 196°
2026-05-05 22:35 44.55672 -73.16985 1652 ft 123 kts 198°
2026-05-05 22:36 44.54833 -73.17204 1654 ft 123 kts 198°
2026-05-05 22:36 44.53979 -73.17418 1649 ft 126 kts 199°
2026-05-05 22:36 44.53114 -73.17631 1648 ft 126 kts 198°
2026-05-05 22:36 44.52268 -73.17855 1646 ft 124 kts 198°
2026-05-05 22:37 44.51414 -73.18107 1641 ft 125 kts 199°
2026-05-05 22:37 44.50575 -73.18318 1646 ft 120 kts 199°
2026-05-05 22:37 44.49766 -73.18553 1375 ft 108 kts 200°
2026-05-05 22:37 44.49145 -73.18784 1170 ft 83 kts 201°
2026-05-05 22:38 44.48606 -73.19012 1035 ft 71 kts 202°
2026-05-05 22:38 44.48223 -73.19181 894 ft 44 kts 205°
2026-05-05 22:38 44.48080 -73.19245 724 ft 9 kts 206°
2026-05-05 22:38 44.48033 -73.19267 580 ft 3 kts 207°
2026-05-05 22:39 44.48034 -73.19271 530 ft 1 kts 191°
2026-05-05 22:39 44.48024 -73.19306 538 ft 7 kts 102°
2026-05-05 22:39 44.48011 -73.19303 521 ft 6 kts 34°
2026-05-05 22:39 44.48014 -73.19299 520 ft 0 kts 52°
2026-05-05 22:41 44.48014 -73.19298 520 ft 0 kts 53°
2026-05-05 22:41 44.48012 -73.19298 527 ft 1 kts 61°
2026-05-05 22:41 44.48013 -73.19289 552 ft 2 kts 73°
2026-05-05 22:42 44.48035 -73.19292 638 ft 6 kts 79°
2026-05-05 22:42 44.48063 -73.19023 787 ft 47 kts 84°
2026-05-05 22:42 44.48103 -73.18401 862 ft 79 kts 88°
2026-05-05 22:42 44.48175 -73.17558 797 ft 86 kts 76°
2026-05-05 22:43 44.48310 -73.16930 746 ft 50 kts 91°
2026-05-05 22:43 44.48352 -73.16593 602 ft 20 kts 168°
2026-05-05 22:43 44.48278 -73.16536 392 ft 2 kts 183°
2026-05-05 22:43 44.48267 -73.16535 322 ft 4 kts 220°
2026-05-05 22:44 44.48262 -73.16529 316 ft 0 kts 223°